Location: Lussas
(44.6119°N, 4.4726°E)
Time: 13:48:51
(UTC+00:00)

COSMOS 2455 - Pass Details

Date: 26 November 2020
Orbit: 900 x 909 km, 67.1° (Epoch: 27 January)

Event Time Altitude Azimuth Distance (km) Brightness Sun altitude
Rises 05:48:35 0° 189° (S) 3,513 6.0 -11.3°
Reaches altitude 10° 05:51:10 10° 183° (S) 2,578 5.4 -10.9°
Maximum altitude 05:56:49 45° 113° (ESE) 1,218 4.2 -10.0°
Drops below altitude 10° 06:02:30 10° 42° (NE) 2,599 5.5 -9.0°
Sets 06:05:06 0° 37° (NE) 3,545 6.2 -8.6°
